Upper Klamath Lake Weather Center

Moon Phase Calendar



Upper Klamath Lake Water Level
Online Cameras

 


      

Current Conditions in Klamath Falls
2/23/2024 3:03:48 PM

54°F
Feels Like 51
Clear
Humidity
55%
Pressure
30.15"
Wind
2.1 mph (SSE)
Dew Point
38°F
UV Index
1/10 (Low)
Visibility
6 mi

Hourly Forecast

Date & Time Fri, Feb 23
3:00 PM
Fri, Feb 23
4:00 PM
Fri, Feb 23
5:00 PM
Fri, Feb 23
6:00 PM
Fri, Feb 23
7:00 PM
Fri, Feb 23
8:00 PM
Fri, Feb 23
9:00 PM
Fri, Feb 23
10:00 PM
Fri, Feb 23
11:00 PM
Sat, Feb 24
12:00 AM
Sat, Feb 24
1:00 AM
Sat, Feb 24
2:00 AM
Sat, Feb 24
3:00 AM
Sat, Feb 24
4:00 AM
Sat, Feb 24
5:00 AM
Sat, Feb 24
6:00 AM
Sat, Feb 24
7:00 AM
Sat, Feb 24
8:00 AM
Sat, Feb 24
9:00 AM
Sat, Feb 24
10:00 AM
Sat, Feb 24
11:00 AM
Sat, Feb 24
12:00 PM
Sat, Feb 24
1:00 PM
Sat, Feb 24
2:00 PM
Sat, Feb 24
3:00 PM
Sat, Feb 24
4:00 PM
Sat, Feb 24
5:00 PM
Sat, Feb 24
6:00 PM
Sat, Feb 24
7:00 PM
Sat, Feb 24
8:00 PM
Sat, Feb 24
9:00 PM
Sat, Feb 24
10:00 PM
Sat, Feb 24
11:00 PM
Sun, Feb 25
12:00 AM
Sun, Feb 25
1:00 AM
Sun, Feb 25
2:00 AM
Sun, Feb 25
3:00 AM
Sun, Feb 25
4:00 AM
Sun, Feb 25
5:00 AM
Sun, Feb 25
6:00 AM
Sun, Feb 25
7:00 AM
Sun, Feb 25
8:00 AM
Sun, Feb 25
9:00 AM
Sun, Feb 25
10:00 AM
Sun, Feb 25
11:00 AM
Sun, Feb 25
12:00 PM
Sun, Feb 25
1:00 PM
Sun, Feb 25
2:00 PM
Condition
Clear

Clear

Clouds

Clouds

Clouds

Clouds

Clouds

Clouds

Clouds

Clouds

Clouds

Clouds

Clouds

Clouds

Clouds

Clear

Clear

Clear

Clear

Clear

Clear

Clear

Clear

Clear

Clear

Clear

Clear

Clear

Clear

Clear

Clear

Clear

Clouds

Clouds

Clouds

Clouds

Clouds

Clouds

Clouds

Clouds

Clouds

Clouds

Clouds

Clouds

Clouds

Clouds

Clouds

Clouds
Temperature 54°F53°F51°F47°F44°F40°F40°F39°F38°F38°F37°F36°F36°F35°F35°F35°F35°F38°F43°F46°F49°F52°F54°F55°F55°F54°F51°F45°F42°F41°F40°F39°F39°F38°F38°F37°F37°F37°F36°F36°F36°F39°F43°F47°F49°F51°F52°F52°F
Feels Like 51°F51°F49°F47°F41°F38°F37°F37°F36°F35°F34°F33°F33°F33°F35°F35°F35°F38°F43°F46°F49°F49°F51°F52°F52°F51°F48°F42°F39°F38°F37°F37°F37°F38°F38°F37°F37°F37°F36°F36°F33°F39°F42°F45°F48°F48°F49°F49°F
Cloudiness 0%1%20%44%66%86%89%91%100%92%81%69%67%61%13%10%8%7%7%6%3%2%1%1%1%1%0%0%0%0%0%1%16%21%20%17%14%13%16%12%12%20%28%27%20%35%42%54%
Visibility 6 mi6 mi6 mi6 mi6 mi6 mi6 mi6 mi6 mi6 mi6 mi6 mi6 mi6 mi6 mi6 mi6 mi6 mi6 mi6 mi6 mi6 mi6 mi6 mi6 mi6 mi6 mi6 mi6 mi6 mi6 mi6 mi6 mi6 mi6 mi6 mi6 mi6 mi6 mi6 mi6 mi6 mi6 mi6 mi6 mi6 mi6 mi6 mi
Precipitation 0%0%0%0%0%0%0%0%0%0%0%0%0%0%0%0%0%0%0%0%0%0%0%0%0%0%0%0%0%0%0%0%0%0%0%0%0%0%0%0%0%0%0%0%0%0%0%0%
Humidity 55%53%56%59%63%67%68%68%69%70%72%73%73%74%74%73%73%67%58%52%48%44%41%40%41%45%58%68%74%74%75%76%78%79%80%82%84%85%87%87%88%81%71%63%54%48%42%42%
Dew Point 38°F36°F36°F34°F32°F29°F29°F28°F28°F28°F27°F27°F27°F26°F26°F26°F26°F27°F28°F29°F29°F30°F29°F30°F30°F32°F35°F34°F33°F32°F31°F31°F31°F31°F31°F31°F31°F31°F31°F31°F31°F32°F33°F34°F32°F31°F29°F29°F
Pressure 30.15"30.15"30.15"30.18"30.21"30.21"30.21"30.21"30.21"30.24"30.24"30.24"30.24"30.24"30.21"30.21"30.21"30.21"30.15"30.12"30.09"30.06"30.03"30"29.97"29.97"29.97"30.03"30.06"30.09"30.09"30.09"30.09"30.09"30.09"30.09"30.09"30.09"30.09"30.09"30.09"30.09"30.03"30"29.97"29.97"29.94"29.91"
Wind Speed 2.1 mph1.6 mph1.6 mph2.8 mph4.5 mph3.9 mph3.4 mph3.1 mph3.4 mph3.5 mph3.5 mph3.7 mph3.4 mph3.1 mph2.3 mph1.3 mph1.3 mph0.7 mph1.7 mph2.5 mph3.1 mph3.9 mph3.8 mph3.2 mph3.4 mph3.7 mph4.2 mph4.9 mph4.8 mph4.5 mph3.9 mph3.4 mph3.1 mph2.9 mph2.9 mph2.8 mph2.6 mph2.7 mph2.6 mph2.8 mph3 mph2.8 mph3.4 mph3.8 mph4.4 mph5.5 mph8.2 mph9.3 mph
Wind
Direction
159°
SSE
192°
SSW
277°
W
310°
NW
333°
NNW
337°
NNW
334°
NNW
322°
NW
334°
NNW
341°
NNW
336°
NNW
335°
NNW
337°
NNW
329°
NNW
322°
NW
292°
WNW
262°
W
256°
WSW
173°
S
164°
SSE
169°
S
174°
S
183°
S
192°
SSW
212°
SSW
237°
WSW
254°
WSW
264°
W
273°
W
278°
W
279°
W
275°
W
267°
W
252°
WSW
240°
WSW
242°
WSW
251°
WSW
230°
SW
230°
SW
226°
SW
217°
SW
206°
SSW
196°
SSW
197°
SSW
216°
SW
234°
SW
245°
WSW
255°
WSW

Daily Forecast

Date High Low Precip. Humidity
Today
Feb 23

Clear
54 °F
32 °F
0%
50%
Saturday
Feb 24

Clear
55 °F
35 °F
0%
44%
Sunday
Feb 25

Clouds
52 °F
36 °F
4%
48%
Monday
Feb 26

Snow
38 °F
26 °F
100%
92%
Tuesday
Feb 27

Snow
36 °F
22 °F
37%
57%
Wednesday
Feb 28

Clouds
45 °F
28 °F
12%
61%
Thursday
Feb 29

Snow
42 °F
32 °F
92%
78%
Friday
Mar 1

Snow
39 °F
32 °F
100%
89%
Saturday
Mar 2

Snow
32 °F
23 °F
100%
84%
Sunday
Mar 3

Clouds
31 °F
12 °F
28%
68%
Monday
Mar 4

Clouds
36 °F
19 °F
0%
82%
Tuesday
Mar 5

Clouds
41 °F
26 °F
0%
81%
Wednesday
Mar 6

Snow
41 °F
34 °F
82%
86%
Thursday
Mar 7

Snow
41 °F
31 °F
76%
75%
Friday
Mar 8

Snow
42 °F
28 °F
61%
61%
Saturday
Mar 9

Clouds
50 °F
28 °F
0%
44%

Temperature 8-14 Day Outlook



Precipitation 8-14 Day Outlook




Quick Links
Upper Klamath Lake News
Upper Klamath Lake Photos
Upper Klamath Lake Videos




About Us
Contact Us
Site Map
Search Site
Advertise With Us
   
UpperKlamath.USLakes.info
THE UPPER KLAMATH LAKE WEBSITE

Copyright 2024, Lakes Online
Privacy    |    Legal